Location: Hopewell Observatory
(38.8698°N, 77.6988°W)
Time: 16:43:13
(UTC-04:00)

Amateur Radio Satellites - All Passes

Search period start: 27 April 2015 16:13
Search period end: 28 April 2015 16:13
Location: Hopewell Observatory, 38.8698°N, 77.6988°W

Satellite Date Start Highest point End Downlink Frequencies (MHz)
Time Altitude Azimuth
ITUPSAT 1 27 Apr 16:18:09 16:21:08 16° 295° (WNW) 16:23:54 437.325
ISS 27 Apr 16:29:06 16:30:39 13° 16° (NNE) 16:32:15 145.825
JAS-2 27 Apr 16:35:46 16:43:40 80° 258° (WSW) 16:51:19 435.910
MOZHAYETS 4 27 Apr 16:50:53 16:53:44 17° 91° (E) 16:56:44
PHONESAT 2.4 27 Apr 16:55:00 16:58:12 31° 153° (SSE) 17:01:27 2401.200-2431.200
AO-7 27 Apr 16:56:00 17:04:08 58° 258° (WSW) 17:12:16 29.400- 29.500
STARS 27 Apr 16:58:11 17:02:23 40° 288° (WNW) 17:06:32 437.465
GONETS M04 27 Apr 17:01:32 17:10:17 82° 96° (E) 17:19:10
CUSAT 1 27 Apr 17:03:45 17:07:03 32° 89° (E) 17:11:22 437.405
Cubesat XI-IV 27 Apr 17:08:40 17:10:27 12° 61° (ENE) 17:12:32 437.490
HORYU 2 27 Apr 17:30:41 17:31:57 11° 272° (W) 17:32:56 437.375
PCSat 27 Apr 17:32:16 17:37:40 64° 59° (ENE) 17:43:02 145.827
VERMONT LUNAR 27 Apr 17:43:25 17:46:48 75° 350° (N) 17:50:12 437.305
RS-15 27 Apr 17:48:00 17:56:31 24° 335° (NNW) 18:05:00 29.354- 29.394
DANDE 27 Apr 17:56:42 18:00:05 81° 280° (W) 18:04:39 436.750
ISS 27 Apr 18:04:26 18:07:37 51° 34° (NE) 18:10:48 145.825
Cosmos 2499 27 Apr 18:16:17 18:24:32 46° 90° (E) 18:32:40 435.465 / 435.565
JAS-2 27 Apr 18:25:38 18:29:48 14° 275° (W) 18:33:20 435.910
MOZHAYETS 4 27 Apr 18:26:52 18:31:14 43° 287° (WNW) 18:35:32
PHONESAT 2.4 27 Apr 18:32:41 18:36:17 83° 348° (NNW) 18:39:53 2401.200-2431.200
CUBESAT XI-V 27 Apr 18:33:20 18:36:02 16° 91° (E) 18:38:57 437.345
CUTE-I 27 Apr 18:34:19 18:39:36 75° 76° (ENE) 18:44:56 437.470
M-CUBED/EXP-1 PRIME 27 Apr 18:37:21 18:38:40 12° 92° (E) 18:40:11 437.505
SO-50 27 Apr 18:40:51 18:41:15 10° 34° (NE) 18:41:52 436.795
Cubesat XI-IV 27 Apr 18:44:33 18:49:54 88° 251° (WSW) 18:55:16 437.490
CUSAT 1 27 Apr 18:47:27 18:50:11 17° 298° (WNW) 18:53:16 437.405
GONETS M04 27 Apr 19:02:04 19:08:24 20° 297° (WNW) 19:14:22
AUBIESAT-1 27 Apr 19:15:56 19:19:29 30° 100° (E) 19:22:48 437.475
PCSat 27 Apr 19:17:15 19:20:37 16° 254° (WSW) 19:23:44 145.827
VERMONT LUNAR 27 Apr 19:21:02 19:24:24 70° 7° (N) 19:27:47 437.305
STRAND 1 27 Apr 19:30:23 19:34:47 30° 95° (E) 19:39:16 437.568
BRITE-PL 27 Apr 19:32:01 19:34:12 14° 66° (ENE) 19:36:35 437.365/2234.400
ISS 27 Apr 19:41:44 19:43:42 15° 230° (SW) 19:45:35 145.825
PRISM 27 Apr 19:45:49 19:49:51 55° 100° (E) 19:53:52 437.425
RS-15 27 Apr 20:07:31 20:14:37 18° 10° (N) 20:22:04 29.354- 29.394
CUBESAT XI-V 27 Apr 20:09:22 20:13:47 46° 287° (WNW) 20:18:11 437.345
Cosmos 2499 27 Apr 20:09:40 20:17:51 39° 287° (WNW) 20:25:40 435.465 / 435.565
M-CUBED/EXP-1 PRIME 27 Apr 20:10:02 20:14:02 47° 292° (WNW) 20:17:40 437.505
PHONESAT 2.4 27 Apr 20:11:04 20:14:40 68° 5° (N) 20:18:15 2401.200-2431.200
HO-68 27 Apr 20:11:43 20:18:11 39° 66° (ENE) 20:24:46 435.675
CUTE-I 27 Apr 20:18:03 20:20:21 12° 272° (W) 20:22:20 437.470
SO-50 27 Apr 20:18:04 20:22:57 56° 55° (NE) 20:27:47 436.795
SEEDS 27 Apr 20:30:28 20:33:53 24° 70° (ENE) 20:37:23 437.485
CANX-2 27 Apr 20:41:57 20:46:01 43° 74° (ENE) 20:50:09 2200.000
AAUSAT CUBESAT 2 27 Apr 20:42:19 20:45:36 23° 70° (ENE) 20:48:58 437.432
GOMX 1 27 Apr 20:44:04 20:48:10 57° 75° (ENE) 20:52:32 467.674
CUTE 1.7 + AOD 2 27 Apr 20:50:40 20:54:48 49° 74° (ENE) 20:59:00 437.475
AUBIESAT-1 27 Apr 20:51:07 20:54:06 19° 298° (WNW) 20:56:49 437.475
YUBILEINY 27 Apr 20:55:17 21:01:33 22° 64° (ENE) 21:08:10 435.215
VERMONT LUNAR 27 Apr 20:58:34 21:01:49 43° 204° (SSW) 21:05:02 437.305
BRITE-PL 27 Apr 21:08:24 21:12:23 44° 262° (W) 21:16:31 437.365/2234.400
STRAND 1 27 Apr 21:09:31 21:13:58 30° 291° (WNW) 21:18:21 437.568
DOVE 4 27 Apr 21:09:34 21:13:48 73° 76° (ENE) 21:18:18 437.250
CUBEBUG 2 27 Apr 21:21:53 21:25:28 26° 69° (ENE) 21:29:15 437.445
PRISM 27 Apr 21:23:20 21:24:54 12° 295° (WNW) 21:26:15 437.425
COMPASS 1 27 Apr 21:36:03 21:40:17 73° 259° (WSW) 21:44:32 437.405
CINEMA 3 27 Apr 21:37:03 21:41:22 73° 77° (ENE) 21:45:57 145.822/145.860
DELFI C3 27 Apr 21:37:53 21:41:31 32° 72° (ENE) 21:45:11 145.870
O/OREOS (USA 219) 27 Apr 21:41:29 21:45:21 28° 104° (ESE) 21:49:17 437.305
UWE-3 27 Apr 21:42:47 21:46:45 35° 71° (ENE) 21:50:52 435.000/436.395/437.385
FUNcube-1 27 Apr 21:46:26 21:50:13 30° 70° (ENE) 21:54:08 145.935
UKube-1 27 Apr 21:49:00 21:52:01 19° 67° (ENE) 21:55:09 .
PHONESAT 2.4 27 Apr 21:49:23 21:52:53 52° 202° (SSW) 21:56:23 2401.200-2431.200
HUMSAT D 27 Apr 21:50:44 21:53:16 16° 67° (ENE) 21:55:59 437.325/437.525
HO-68 27 Apr 21:59:13 22:05:54 39° 263° (W) 22:12:31 435.675
SO-50 27 Apr 21:59:51 22:03:07 17° 250° (WSW) 22:06:09 436.795
SEEDS 27 Apr 22:05:57 22:09:36 27° 265° (W) 22:13:13 437.485
Oscar 11 27 Apr 22:06:11 22:10:32 85° 257° (WSW) 22:14:56 145.826/435.025
ZACube-1 27 Apr 22:12:12 22:16:29 59° 74° (ENE) 22:20:54 437.345
50 SAT 27 Apr 22:15:22 22:17:58 17° 68° (ENE) 22:20:42 437.505
AAUSAT CUBESAT 2 27 Apr 22:17:26 22:21:06 28° 265° (W) 22:24:44 437.432
CANX-2 27 Apr 22:19:40 22:22:14 15° 270° (W) 22:24:37 2200.000
RS-15 27 Apr 22:20:56 22:31:29 41° 42° (NE) 22:42:38 29.354- 29.394
VELOX 1 27 Apr 22:25:02 22:28:27 23° 69° (ENE) 22:31:57 145.980
GOMX 1 27 Apr 22:25:51 22:26:55 11° 273° (W) 22:27:43 467.674
CUBEBUG 1 27 Apr 22:26:18 22:27:13 11° 64° (ENE) 22:28:23 437.445
CUTE 1.7 + AOD 2 27 Apr 22:28:56 22:31:05 13° 271° (W) 22:33:00 437.475
Cosmos 2491 27 Apr 22:39:06 22:47:23 52° 91° (E) 22:55:50 435.465 / 435.565
AISAT 27 Apr 22:43:09 22:47:11 37° 72° (ENE) 22:51:16 437.250
DX 1 27 Apr 22:43:46 22:48:05 85° 77° (ENE) 22:52:26 434.975-435.025
YUBILEINY 27 Apr 22:50:43 22:59:28 75° 265° (W) 23:08:06 435.215
CUBEBUG 2 27 Apr 22:58:19 23:02:06 27° 266° (W) 23:05:56 437.445
ANTELSAT 27 Apr 23:01:53 23:05:42 25° 94° (E) 23:09:33 437.575/2403.000
QB50P2 27 Apr 23:08:56 23:10:45 13° 90° (E) 23:12:48 145.880/145.840
DELFI C3 27 Apr 23:13:50 23:16:45 18° 268° (W) 23:19:33 145.870
UWE-3 27 Apr 23:20:09 23:23:25 20° 268° (W) 23:26:39 435.000/436.395/437.385
O/OREOS (USA 219) 27 Apr 23:20:49 23:24:45 27° 300° (WNW) 23:28:37 437.305
FUNcube-1 27 Apr 23:23:04 23:26:35 23° 267° (W) 23:30:04 145.935
UKube-1 27 Apr 23:23:58 23:27:57 35° 263° (W) 23:31:54 .
NANOSAT C BR1 27 Apr 23:24:24 23:27:24 19° 93° (E) 23:30:31 145.865
HUMSAT D 27 Apr 23:24:41 23:28:42 42° 262° (W) 23:32:48 437.325/437.525
POPSAT HIP 1 27 Apr 23:28:31 23:31:46 21° 94° (E) 23:35:06 437.405
PHONESAT 2.4 27 Apr 23:29:06 23:30:40 12° 215° (SW) 23:32:08 2401.200-2431.200
ESTCUBE 1 27 Apr 23:29:50 23:34:17 65° 75° (ENE) 23:38:46 437.505/2401.250
SPROUT 27 Apr 23:35:49 23:38:27 17° 67° (ENE) 23:41:16 437.525
BUGSAT 1 27 Apr 23:40:40 23:43:39 19° 93° (E) 23:46:45 437.445
50 SAT 27 Apr 23:48:52 23:52:32 34° 263° (W) 23:56:13 437.505
TIGRISAT 27 Apr 23:50:19 23:55:03 81° 102° (ESE) 23:59:40 435.000
ZACube-1 27 Apr 23:51:46 23:53:21 11° 272° (W) 23:54:41 437.345
UNISAT 6 27 Apr 23:55:43 00:00:28 86° 283° (WNW) 00:05:06 437.425
Cosmos 2504 27 Apr 23:56:31 00:03:02 28° 68° (ENE) 00:09:22 435.465 / 435.565
DUCHIFAT 1 27 Apr 23:56:47 00:00:52 43° 98° (E) 00:04:58 145.980
POLYITAN 1 27 Apr 23:58:42 00:02:53 48° 99° (E) 00:07:04 437.675
CUBEBUG 1 27 Apr 23:58:47 00:03:05 68° 259° (WSW) 00:07:24 437.445
VELOX 1 28 Apr 00:01:00 00:04:53 30° 264° (W) 00:08:44 145.980
QB50P1 28 Apr 00:15:43 00:20:02 76° 103° (ESE) 00:24:20 145.935-145.965
AISAT 28 Apr 00:20:50 00:23:57 18° 268° (W) 00:26:55 437.250
AIST 1 28 Apr 00:21:28 00:25:12 30° 91° (E) 00:28:58
TISAT 1 28 Apr 00:30:15 00:34:19 53° 74° (ENE) 00:38:25 437.305
RS-15 28 Apr 00:33:15 00:44:44 66° 245° (WSW) 00:56:35 29.354- 29.394
Cosmos 2491 28 Apr 00:36:57 00:44:40 33° 290° (WNW) 00:52:15 435.465 / 435.565
ANTELSAT 28 Apr 00:38:21 00:42:31 31° 290° (WNW) 00:46:33 437.575/2403.000
BEESAT 28 Apr 00:39:25 00:41:02 12° 63° (ENE) 00:42:54 436.000
SWISSCUBE 28 Apr 00:41:38 00:43:54 14° 64° (ENE) 00:46:25 437.505
QB50P2 28 Apr 00:42:49 00:47:01 51° 286° (WNW) 00:51:11 145.880/145.840
YUBILEINY 28 Apr 00:51:28 00:54:58 12° 283° (WNW) 00:57:45 435.215
NANOSAT C BR1 28 Apr 00:59:28 01:03:23 34° 288° (WNW) 01:07:14 145.865
POPSAT HIP 1 28 Apr 01:03:53 01:07:42 31° 289° (WNW) 01:11:27 437.405
SPROUT 28 Apr 01:10:14 01:14:16 40° 262° (W) 01:18:19 437.525
ESTCUBE 1 28 Apr 01:10:23 01:11:41 11° 272° (W) 01:12:40 437.505/2401.250
BUGSAT 1 28 Apr 01:15:28 01:19:12 32° 288° (WNW) 01:22:55 437.445
Oscar 19 28 Apr 01:26:03 01:28:26 14° 89° (E) 01:31:07 437.125/150
TIGRISAT 28 Apr 01:30:00 01:31:10 11° 297° (WNW) 01:32:04 435.000
DUCHIFAT 1 28 Apr 01:33:42 01:36:23 16° 293° (WNW) 01:38:53 145.980
POLYITAN 1 28 Apr 01:35:56 01:38:26 15° 294° (WNW) 01:40:46 437.675
ITUPSAT 1 28 Apr 01:44:28 01:49:07 53° 73° (ENE) 01:53:48 437.325
Cosmos 2504 28 Apr 01:49:18 01:56:56 53° 270° (W) 02:04:01 435.465 / 435.565
AIST 1 28 Apr 01:59:42 02:02:56 20° 287° (WNW) 02:06:03
TISAT 1 28 Apr 02:08:57 02:10:30 11° 271° (W) 02:11:49 437.305
BEESAT 28 Apr 02:13:33 02:18:20 75° 259° (WSW) 02:23:08 436.000
SWISSCUBE 28 Apr 02:16:33 02:21:18 64° 259° (W) 02:26:04 437.505
STARS 28 Apr 02:19:39 02:21:48 14° 65° (ENE) 02:24:09 437.465
AIST 2 28 Apr 02:26:56 02:29:28 16° 111° (ESE) 02:32:10 435.215
JUGNU 28 Apr 02:34:43 02:36:35 11° 181° (S) 02:38:27 437.505
BEESAT 3 28 Apr 02:42:32 02:46:37 84° 301° (WNW) 02:50:46 437.485
BEESAT 2 28 Apr 02:47:11 02:51:18 89° 110° (ESE) 02:55:28 435.950
Gurwin Techsat 1B 28 Apr 02:49:13 02:53:22 24° 93° (E) 02:57:38 435.225
RS-15 28 Apr 02:50:51 02:55:30 12° 261° (W) 02:58:55 29.354- 29.394
DANDE 28 Apr 02:54:28 02:58:51 16° 63° (ENE) 03:04:00 436.750
Oscar 19 28 Apr 03:03:11 03:08:22 67° 286° (WNW) 03:13:30 437.125/150
KKS-1 28 Apr 03:05:02 03:09:25 70° 75° (ENE) 03:13:51 437.445
GONETS M04 28 Apr 03:13:47 03:21:50 39° 72° (ENE) 03:29:58
ITUPSAT 1 28 Apr 03:24:35 03:27:24 15° 270° (W) 03:30:00 437.325
CUSAT 1 28 Apr 03:39:33 03:46:51 42° 73° (ENE) 03:54:40 437.405
ITAMSAT 1 28 Apr 03:43:25 03:48:37 88° 95° (E) 03:53:49 435.822/435.867
HORYU 2 28 Apr 03:44:37 03:46:48 14° 90° (E) 03:49:12 437.375
JAS-2 28 Apr 03:51:03 03:53:28 13° 84° (E) 03:56:09 435.910
MOZHAYETS 4 28 Apr 03:52:21 03:54:53 15° 66° (ENE) 03:57:35
STARS 28 Apr 03:53:33 03:57:51 53° 260° (W) 04:02:11 437.465
AIST 2 28 Apr 04:03:37 04:07:43 46° 305° (NW) 04:11:53 435.215
Cosmos 2499 28 Apr 04:12:42 04:15:09 12° 57° (ENE) 04:18:06 435.465 / 435.565
BEESAT 3 28 Apr 04:24:31 04:25:22 10° 321° (NW) 04:26:02 437.485
Gurwin Techsat 1B 28 Apr 04:28:33 04:33:31 40° 290° (WNW) 04:38:26 435.225
BEESAT 2 28 Apr 04:28:41 04:30:04 11° 320° (NW) 04:31:18 435.950
DANDE 28 Apr 04:35:24 04:43:12 78° 80° (E) 04:51:51 436.750
SRMSAT 28 Apr 04:37:39 04:39:18 11° 183° (S) 04:40:56 437.500
AO-7 28 Apr 04:58:43 05:06:48 54° 101° (ESE) 05:14:57 29.400- 29.500
GONETS M04 28 Apr 05:10:32 05:18:50 45° 271° (W) 05:26:56
HORYU 2 28 Apr 05:19:27 05:23:50 51° 287° (WNW) 05:28:09 437.375
CUSAT 1 28 Apr 05:22:12 05:29:39 44° 268° (W) 05:37:20 437.405
M-CUBED/EXP-1 PRIME 28 Apr 05:22:52 05:26:11 19° 62° (ENE) 05:29:38 437.505
ITAMSAT 1 28 Apr 05:25:44 05:27:28 11° 299° (WNW) 05:28:55 435.822/435.867
MOZHAYETS 4 28 Apr 05:27:09 05:31:43 54° 261° (W) 05:36:16
JAS-2 28 Apr 05:33:26 05:39:39 76° 286° (WNW) 05:45:08 435.910
CUBESAT XI-V 28 Apr 05:36:22 05:38:45 15° 66° (ENE) 05:41:20 437.345
AUBIESAT-1 28 Apr 06:01:25 06:05:52 40° 67° (ENE) 06:10:20 437.475
Cosmos 2499 28 Apr 06:02:23 06:10:07 76° 81° (E) 06:17:18 435.465 / 435.565
DANDE 28 Apr 06:20:03 06:26:02 23° 273° (W) 06:32:00 436.750
PRISM 28 Apr 06:34:51 06:38:37 34° 72° (ENE) 06:42:25 437.425
STRAND 1 28 Apr 06:45:01 06:49:40 38° 71° (ENE) 06:54:24 437.568
AO-7 28 Apr 06:52:02 06:59:20 34° 299° (WNW) 07:06:29 29.400- 29.500
CUTE-I 28 Apr 06:53:03 06:57:46 32° 96° (E) 07:02:32 437.470
M-CUBED/EXP-1 PRIME 28 Apr 06:55:59 07:00:41 51° 256° (WSW) 07:05:23 437.505
Cubesat XI-IV 28 Apr 07:03:19 07:08:19 41° 98° (E) 07:13:21 437.490
CUBESAT XI-V 28 Apr 07:11:15 07:15:48 55° 260° (W) 07:20:20 437.345
JAS-2 28 Apr 07:22:04 07:23:35 11° 305° (NW) 07:24:41 435.910
AUBIESAT-1 28 Apr 07:36:57 07:40:45 22° 262° (W) 07:44:25 437.475
O/OREOS (USA 219) 28 Apr 07:52:08 07:56:26 43° 64° (ENE) 08:00:41 437.305
Cosmos 2499 28 Apr 07:57:38 08:02:21 17° 279° (W) 08:06:29 435.465 / 435.565
PRISM 28 Apr 08:11:21 08:14:13 17° 267° (W) 08:16:58 437.425
PCSat 28 Apr 08:12:24 08:17:48 77° 117° (ESE) 08:23:15 145.827
STRAND 1 28 Apr 08:24:55 08:29:02 23° 266° (W) 08:33:01 437.568
CUTE-I 28 Apr 08:33:10 08:37:48 30° 292° (WNW) 08:42:20 437.470
Cubesat XI-IV 28 Apr 08:43:57 08:48:13 24° 293° (WNW) 08:52:22 437.490
GOMX 1 28 Apr 08:46:48 08:50:52 23° 93° (E) 08:55:11 467.674
Cosmos 2491 28 Apr 08:51:34 08:58:14 24° 65° (ENE) 09:05:14 435.465 / 435.565
DOVE 4 28 Apr 09:09:44 09:13:58 25° 93° (E) 09:18:23 437.250
BRITE-PL 28 Apr 09:12:46 09:17:58 61° 100° (E) 09:23:28 437.365/2234.400
COMPASS 1 28 Apr 09:21:47 09:24:46 19° 92° (E) 09:27:52 437.405
HO-68 28 Apr 09:27:41 09:34:29 44° 99° (E) 09:41:16 435.675
O/OREOS (USA 219) 28 Apr 09:32:42 09:35:31 16° 259° (W) 09:38:09 437.305
CINEMA 3 28 Apr 09:33:39 09:37:27 22° 92° (E) 09:41:22 145.822/145.860
SEEDS 28 Apr 09:50:55 09:55:05 54° 100° (E) 09:59:12 437.485
YUBILEINY 28 Apr 09:55:15 10:01:58 26° 84° (E) 10:09:01 435.215
Oscar 11 28 Apr 09:55:47 09:58:50 19° 92° (E) 10:01:59 145.826/435.025
PCSat 28 Apr 09:58:19 10:01:55 17° 316° (NW) 10:05:21 145.827
ANTELSAT 28 Apr 10:00:10 10:03:24 20° 67° (ENE) 10:06:50 437.575/2403.000
AAUSAT CUBESAT 2 28 Apr 10:01:10 10:05:14 48° 99° (E) 10:09:15 437.432
ZACube-1 28 Apr 10:03:52 10:06:03 14° 89° (E) 10:08:28 437.345
CANX-2 28 Apr 10:04:09 10:08:26 77° 283° (WNW) 10:12:40 2200.000
CUTE 1.7 + AOD 2 28 Apr 10:12:51 10:17:07 68° 284° (WNW) 10:21:19 437.475
NANOSAT C BR1 28 Apr 10:17:16 10:19:02 13° 66° (ENE) 10:21:01 145.865
POPSAT HIP 1 28 Apr 10:21:22 10:23:32 14° 66° (ENE) 10:25:55 437.405
GOMX 1 28 Apr 10:24:11 10:29:08 43° 287° (WNW) 10:34:15 467.674
BUGSAT 1 28 Apr 10:31:26 10:32:48 12° 66° (ENE) 10:34:23 437.445
SO-50 28 Apr 10:32:11 10:35:48 23° 112° (ESE) 10:39:36 436.795
DX 1 28 Apr 10:34:37 10:37:14 16° 92° (E) 10:40:01 434.975-435.025
ISS 28 Apr 10:42:12 10:45:02 29° 134° (SE) 10:47:56 145.825
DOVE 4 28 Apr 10:47:00 10:51:48 38° 288° (WNW) 10:56:38 437.250
Cosmos 2491 28 Apr 10:47:15 10:56:03 71° 266° (W) 11:04:47 435.465 / 435.565
TIGRISAT 28 Apr 10:47:33 10:52:00 60° 74° (ENE) 10:56:35 435.000
DUCHIFAT 1 28 Apr 10:48:20 10:51:52 27° 70° (ENE) 10:55:29 145.980
CUBEBUG 2 28 Apr 10:49:45 10:54:31 69° 101° (E) 10:59:15 437.445
POLYITAN 1 28 Apr 10:50:47 10:54:29 31° 71° (ENE) 10:58:15 437.675
AIST 2 28 Apr 10:50:57 10:51:14 10° 38° (NE) 10:51:42 435.215
BRITE-PL 28 Apr 10:52:40 10:56:07 17° 293° (WNW) 10:59:29 437.365/2234.400
UNISAT 6 28 Apr 10:53:07 10:57:38 72° 76° (ENE) 11:02:17 437.425
DELFI C3 28 Apr 10:53:08 10:57:09 65° 101° (E) 11:01:08 145.870
COMPASS 1 28 Apr 10:56:48 11:00:33 31° 288° (WNW) 11:04:13 437.405
BEESAT 3 28 Apr 11:02:41 11:06:32 38° 53° (NE) 11:10:20 437.485
QB50P1 28 Apr 11:07:13 11:11:14 46° 74° (ENE) 11:15:20 145.935-145.965
BEESAT 2 28 Apr 11:07:53 11:11:43 36° 53° (NE) 11:15:30 435.950
UWE-3 28 Apr 11:09:46 11:14:31 89° 283° (WNW) 11:19:10 435.000/436.395/437.385
CINEMA 3 28 Apr 11:10:05 11:14:48 41° 288° (WNW) 11:19:28 145.822/145.860
HUMSAT D 28 Apr 11:10:07 11:14:02 33° 96° (E) 11:17:57 437.325/437.525
FUNcube-1 28 Apr 11:11:35 11:16:12 76° 101° (E) 11:20:45 145.935
UKube-1 28 Apr 11:12:27 11:16:31 39° 99° (E) 11:20:36 .
HO-68 28 Apr 11:15:41 11:22:04 35° 296° (WNW) 11:28:18 435.675
ESTCUBE 1 28 Apr 11:25:17 11:27:43 15° 90° (E) 11:30:21 437.505/2401.250
50 SAT 28 Apr 11:27:09 11:30:42 30° 96° (E) 11:34:15 437.505
SEEDS 28 Apr 11:28:30 11:30:28 13° 294° (WNW) 11:32:13 437.485
Oscar 11 28 Apr 11:31:11 11:35:09 34° 288° (WNW) 11:39:02 145.826/435.025
QB50P2 28 Apr 11:34:11 11:38:24 81° 258° (WSW) 11:42:40 145.880/145.840
ANTELSAT 28 Apr 11:35:39 11:39:55 39° 263° (W) 11:44:17 437.575/2403.000
ZACube-1 28 Apr 11:38:18 11:42:49 54° 286° (WNW) 11:47:16 437.345
AAUSAT CUBESAT 2 28 Apr 11:38:18 11:40:29 14° 293° (WNW) 11:42:28 437.432
CUBEBUG 1 28 Apr 11:49:24 11:52:54 24° 94° (E) 11:56:30 437.445
YUBILEINY 28 Apr 11:49:28 11:58:14 63° 281° (WNW) 12:06:59 435.215
NANOSAT C BR1 28 Apr 11:50:22 11:54:28 53° 260° (W) 11:58:38 145.865
VELOX 1 28 Apr 11:52:04 11:56:26 54° 100° (E) 12:00:48 145.980
POPSAT HIP 1 28 Apr 11:55:00 11:59:04 47° 261° (W) 12:03:10 437.405
BUGSAT 1 28 Apr 12:03:58 12:07:53 52° 260° (W) 12:11:50 437.445
AIST 1 28 Apr 12:06:39 12:10:57 86° 79° (E) 12:15:14
DX 1 28 Apr 12:09:35 12:13:44 42° 288° (WNW) 12:17:50 434.975-435.025
AISAT 28 Apr 12:11:04 12:15:34 88° 285° (WNW) 12:20:03 437.250
SO-50 28 Apr 12:11:45 12:16:08 39° 309° (NW) 12:20:39 436.795
ISS 28 Apr 12:18:28 12:21:22 29° 330° (NNW) 12:24:17 145.825
DUCHIFAT 1 28 Apr 12:24:21 12:27:42 22° 266° (W) 12:31:00 145.980
AIST 2 28 Apr 12:26:23 12:30:38 77° 58° (ENE) 12:34:48 435.215
POLYITAN 1 28 Apr 12:27:15 12:30:28 20° 267° (W) 12:33:36 437.675
TIGRISAT 28 Apr 12:27:18 12:29:16 12° 272° (W) 12:30:59 435.000
CUBEBUG 2 28 Apr 12:28:27 12:30:41 13° 295° (WNW) 12:32:40 437.445
Cosmos 2504 28 Apr 12:32:43 12:39:32 27° 84° (E) 12:46:35 435.465 / 435.565
UNISAT 6 28 Apr 12:34:39 12:35:04 10° 273° (W) 12:35:09 437.425
Oscar 19 28 Apr 12:41:28 12:44:53 19° 65° (ENE) 12:48:30 437.125/150
BEESAT 3 28 Apr 12:41:29 12:44:17 18° 249° (WSW) 12:46:56 437.485
QB50P1 28 Apr 12:45:17 12:47:27 13° 270° (W) 12:49:24 145.935-145.965
HUMSAT D 28 Apr 12:46:21 12:49:36 20° 292° (WNW) 12:52:43 437.325/437.525
BEESAT 2 28 Apr 12:46:37 12:49:35 19° 248° (WSW) 12:52:25 435.950
RS-15 28 Apr 12:46:55 12:54:10 22° 103° (ESE) 13:02:05 29.354- 29.394
Cosmos 2491 28 Apr 12:48:38 12:51:32 11° 283° (WNW) 12:53:38 435.465 / 435.565
UKube-1 28 Apr 12:49:26 12:52:23 18° 293° (WNW) 12:55:12 .
FUNcube-1 28 Apr 12:50:35 12:51:57 11° 296° (WNW) 12:53:04 145.935
SPROUT 28 Apr 12:58:01 13:02:02 36° 97° (E) 13:06:03 437.525
ESTCUBE 1 28 Apr 13:00:35 13:04:55 47° 287° (WNW) 13:09:12 437.505/2401.250
50 SAT 28 Apr 13:02:22 13:05:20 19° 291° (WNW) 13:08:10 437.505
ITAMSAT 1 28 Apr 13:23:45 13:26:22 15° 63° (ENE) 13:29:13 435.822/435.867
CUBEBUG 1 28 Apr 13:25:30 13:29:17 28° 290° (WNW) 13:33:00 437.445
VELOX 1 28 Apr 13:30:12 13:32:36 14° 295° (WNW) 13:34:48 145.980
ITUPSAT 1 28 Apr 13:47:48 13:50:25 15° 90° (E) 13:53:15 437.325
TISAT 1 28 Apr 13:51:30 13:55:45 68° 285° (WNW) 13:59:59 437.305
YUBILEINY 28 Apr 13:54:43 13:57:22 11° 305° (NW) 13:59:16 435.215
ISS 28 Apr 13:57:59 13:58:34 10° 350° (N) 13:59:07 145.825
Gurwin Techsat 1B 28 Apr 14:08:58 14:13:38 33° 69° (ENE) 14:18:24 435.225
AO-7 28 Apr 14:09:18 14:12:49 14° 50° (NE) 14:16:48 29.400- 29.500
BEESAT 28 Apr 14:15:27 14:19:38 30° 96° (E) 14:23:50 436.000
SWISSCUBE 28 Apr 14:18:22 14:22:43 35° 97° (E) 14:27:06 437.505
Oscar 19 28 Apr 14:18:51 14:23:52 52° 260° (W) 14:28:57 437.125/150
Cosmos 2504 28 Apr 14:23:35 14:32:25 65° 281° (W) 14:41:05 435.465 / 435.565
SPROUT 28 Apr 14:34:48 14:37:53 19° 292° (WNW) 14:40:51 437.525
HORYU 2 28 Apr 14:42:48 14:44:26 12° 64° (ENE) 14:46:19 437.375
RS-15 28 Apr 14:54:24 15:05:18 86° 302° (WNW) 15:16:29 29.354- 29.394
KKS-1 28 Apr 14:58:50 15:01:19 15° 91° (E) 15:04:00 437.445
ITAMSAT 1 28 Apr 15:00:12 15:05:21 70° 257° (WSW) 15:10:32 435.822/435.867
VERMONT LUNAR 28 Apr 15:14:43 15:17:31 25° 151° (SSE) 15:20:22 437.305
ITUPSAT 1 28 Apr 15:24:04 15:28:42 52° 287° (WNW) 15:33:18 437.325
ISS 28 Apr 15:35:41 15:36:08 10° 10° (N) 15:36:36 145.825
JAS-2 28 Apr 15:41:34 15:48:55 47° 70° (ENE) 15:56:03 435.910
STARS 28 Apr 15:44:46 15:48:41 30° 96° (E) 15:52:37 437.465
Gurwin Techsat 1B 28 Apr 15:49:03 15:53:39 29° 265° (W) 15:58:11 435.225
BEESAT 28 Apr 15:53:25 15:57:23 26° 291° (WNW) 16:01:17 436.000
AO-7 28 Apr 15:56:06 16:04:13 65° 68° (ENE) 16:12:24 29.400- 29.500
SWISSCUBE 28 Apr 15:56:40 16:00:25 23° 292° (WNW) 16:04:02 437.505
